Home   Weather   Spain   Valverde   Past weeks
Flag for Spain

Past Weather in Valverde, Canary Islands, Spain — Yesterday and Last 2 Weeks

Currently: 68 °F. Scattered clouds. (Weather station: Hierro / Aeropuerto, Spain). See more current weather

Past Weather in Valverde — Graph

°F

Valverde Temperature Yesterday

Maximum temperature yesterday: 73 °F (at 2:30 pm)
Minimum temperature yesterday: 66 °F (at 12:00 am)
Average temperature yesterday: 68 °F

High & Low Weather Summary for the Past Weeks

 TemperatureHumidityPressure
High77 °F (Apr 13, 12:30 pm)83% (Apr 9, 5:30 am)30.18 "Hg (Apr 9, 5:30 am)
Low63 °F (Apr 6, 6:00 am)47% (Apr 13, 6:30 pm)29.98 "Hg (Apr 6, 6:00 am)
Average69 °F70%30.07 "Hg
* Reported Apr 5 8:00 am — Apr 20 8:30 am, Valverde. Weather by CustomWeather, © 2021

Note: Actual official high and low records may vary slightly from our data, if they occured in-between our weather recording intervals... More about our weather records

Valverde Weather History for the Previous 24 Hours

Scroll right to see more
 ConditionsComfort  
Time TempWeatherWind HumidityBarometerVisibility
8:30 am
Tue, Apr 20
66 °FPassing clouds.15 mph73%30.09 "HgN/A
8:00 am66 °FPassing clouds.14 mph78%30.07 "HgN/A
7:30 am66 °FPassing clouds.17 mph73%30.07 "HgN/A
7:00 am66 °FPassing clouds.20 mph73%30.07 "HgN/A
6:30 am66 °FPassing clouds.21 mph73%30.07 "HgN/A
6:00 am66 °FPassing clouds.18 mph78%30.07 "HgN/A
5:30 am66 °FPassing clouds.16 mph78%30.09 "HgN/A
5:00 am66 °FPassing clouds.16 mph78%30.09 "HgN/A
4:30 am66 °FPassing clouds.15 mph78%30.09 "HgN/A
4:00 am66 °FPassing clouds.15 mph78%30.09 "HgN/A
3:30 am66 °FPassing clouds.16 mph78%30.09 "HgN/A
2:30 am66 °FPassing clouds.16 mph78%30.09 "HgN/A
2:00 am66 °FPassing clouds.17 mph78%30.12 "HgN/A
1:30 am66 °FPassing clouds.18 mph78%30.12 "HgN/A
1:00 am66 °FPassing clouds.18 mph73%30.12 "HgN/A
12:30 am66 °FPassing clouds.18 mph73%30.12 "HgN/A
12:00 am68 °FOvercast.21 mph73%30.12 "HgN/A
11:30 pm
Mon, Apr 19
66 °FPassing clouds.21 mph73%30.12 "HgN/A
11:00 pm66 °FPassing clouds.20 mph73%30.12 "HgN/A
10:30 pm68 °FPassing clouds.17 mph73%30.12 "HgN/A
10:00 pm68 °FPassing clouds.18 mph73%30.12 "HgN/A
9:30 pm68 °FPassing clouds.17 mph73%30.09 "HgN/A
9:00 pm68 °FPassing clouds.18 mph73%30.09 "HgN/A
8:30 pm68 °FPartly sunny.21 mph73%30.09 "HgN/A
8:00 pm68 °FPartly sunny.23 mph69%30.09 "HgN/A
7:30 pm68 °FOvercast.23 mph69%30.09 "HgN/A
7:00 pm68 °FPartly sunny.21 mph69%30.09 "HgN/A
6:30 pm68 °FScattered clouds.18 mph73%30.09 "HgN/A
6:00 pm70 °FPassing clouds.17 mph69%30.09 "HgN/A
5:30 pm72 °FPassing clouds.14 mph61%30.09 "HgN/A
5:00 pm72 °FPassing clouds.13 mph65%30.09 "HgN/A
4:30 pm72 °FPassing clouds.12 mph61%30.09 "HgN/A
4:00 pm70 °FPassing clouds.14 mph64%30.12 "HgN/A
3:30 pm72 °FPassing clouds.15 mph61%30.12 "HgN/A
3:00 pm72 °FPassing clouds.16 mph61%30.12 "HgN/A
2:30 pm73 °FPassing clouds.18 mph61%30.12 "HgN/A
2:00 pm72 °FScattered clouds.17 mph61%30.15 "HgN/A
1:30 pm72 °FScattered clouds.17 mph61%30.15 "HgN/A
1:00 pm72 °FScattered clouds.17 mph61%30.15 "HgN/A
12:30 pm72 °FScattered clouds.18 mph61%30.15 "HgN/A
12:00 pm70 °FScattered clouds.18 mph60%30.15 "HgN/A
11:30 am68 °FScattered clouds.21 mph64%30.15 "HgN/A
11:00 am70 °FScattered clouds.18 mph60%30.15 "HgN/A
10:30 am68 °FScattered clouds.17 mph64%30.15 "HgN/A
10:00 am70 °FPassing clouds.20 mph64%30.15 "HgN/A
9:30 am68 °FPassing clouds.16 mph69%30.12 "HgN/A
9:00 am68 °FPassing clouds.16 mph69%30.12 "HgN/A
Weather by CustomWeather, © 2021

See weather overview